sat.trackr.live / text

‹ back to catalog

STARLINK-34086

NORAD 65734 · 2025-216A

PAYLOAD ACTIVE UNKNOWN

§ Identity

Operator
Country
US
Launch date
2025-09-25
Launch site
AFETR
Launch vehicle
Mass (kg)
RCS (m²)

Purposes: comms

External: N2YO · Heavens-Above · Gunter

§ Orbital elements

Epoch: 2026-05-24T20:11:13.699392Z

Period
94.11 min
Inclination
53.1594°
Eccentricity
0.0001009
Mean motion
15.30205053 rev/d
Perigee alt
474.5 km
Apogee alt
475.9 km
Semi-major
6,853.3 km
B*
6.4119e-4
RAAN
339.1125°
Arg perigee
75.8210°
Mean anomaly
284.2903°
Rev number
3,822

§ Raw data

STARLINK-340861 65734U 25216A   26144.84113078  .00018682  00000+0  64119-3 0  99982 65734  53.1594 339.1125 0001009  75.8210 284.2903 15.30205053 38228

JSON: /api/v1/satellites/65734 · /tle

For live sub-satellite position, see the globe view (requires WebGL).

§ Visibility from observer

Set your observer location to see the next 7 days of passes ≥ 10°. The values pass through the URL so the page stays shareable.

No JS? Fill the form by hand. The geolocation button needs JavaScript.